KA2FNK Weather Reports


Display with metric or nautical units.
time (UTC)temp
F
wind
direction
speed
MPH
gust
MPH
rain 1hr
in
rain 24hr
in
rain mn
in
humidity
%
barometer
mb
20260906234036 91 215 5.0 9.0 0.00 0.01 0.01 50 1012.7
20260906233523 91 48 0.0 7.0 0.00 0.01 0.01 50 1012.4
20260906233010 91 1 0.0 10.0 0.00 0.01 0.01 50 1012.2
20260906232457 91 77 2.0 8.0 0.00 0.01 0.01 50 1012.1
20260906231944 91 90 0.0 8.0 0.00 0.01 0.01 51 1011.9
20260906231431 91 84 3.0 5.0 0.00 0.01 0.01 50 1011.8
20260906230918 91 72 4.0 5.0 0.00 0.01 0.01 50 1011.7
20260906230405 91 100 0.0 9.0 0.00 0.01 0.01 50 1011.6
20260906225852 91 115 4.0 7.0 0.00 0.01 0.01 49 1011.6
20260906225339 91 55 0.0 11.0 0.00 0.01 0.01 49 1011.6
20260906224826 91 86 0.0 0.0 0.00 0.01 0.01 49 1011.6
20260906224313 92 86 0.0 2.0 0.00 0.01 0.01 49 1011.7
20260906223800 92 128 0.0 6.0 0.00 0.01 0.01 49 1011.7
20260906223247 91 79 0.0 0.0 0.00 0.01 0.01 50 1011.7
20260906222737 91 79 0.0 3.0 0.00 0.01 0.01 51 1011.6
20260906222221 91 90 0.0 5.0 0.01 0.01 0.01 52 1011.6
20260906221708 91 72 0.0 5.0 0.01 0.01 0.01 53 1011.7
20260906221155 91 217 0.0 0.0 0.01 0.01 0.01 54 1011.7
20260906220642 90 217 0.0 0.0 0.01 0.01 0.01 56 1011.6
20260906220129 90 217 0.0 0.0 0.01 0.01 0.01 55 1011.6
20260906215616 89 217 0.0 0.0 0.01 0.01 0.01 61 1011.6
20260906215103 88 217 0.0 0.0 0.01 0.01 0.01 63 1011.5
20260906214550 87 217 0.0 0.0 0.01 0.01 0.01 65 1011.5
20260906214037 87 217 0.0 0.0 0.01 0.01 0.01 65 1011.7
20260906213524 88 217 0.0 3.0 0.01 0.01 0.01 61 1011.9
20260906213011 90 172 1.0 5.0 0.01 0.01 0.01 57 1011.9
20260906212458 93 10 0.0 0.0 0.00 0.00 0.00 50 1012.0
20260906211945 94 10 0.0 0.0 0.00 0.00 0.00 47 1012.0
20260906211432 94 10 0.0 0.0 0.00 0.00 0.00 43 1012.1
20260906210919 94 10 0.0 0.0 0.00 0.00 0.00 44 1012.1
20260906210406 93 10 0.0 0.0 0.00 0.00 0.00 43 1012.2
20260906205853 94 10 0.0 0.0 0.00 0.00 0.00 42 1012.3
20260906205340 94 10 0.0 3.0 0.00 0.00 0.00 41 1012.3
20260906204827 94 49 0.0 0.0 0.00 0.00 0.00 40 1012.5
20260906204314 95 49 0.0 0.0 0.00 0.00 0.00 40 1012.7
20260906203801 95 49 0.0 0.0 0.00 0.00 0.00 39 1012.8
20260906203248 95 49 0.0 0.0 0.00 0.00 0.00 42 1012.8
20260906202735 95 49 0.0 0.0 0.00 0.00 0.00 39 1012.7
20260906202222 95 49 0.0 0.0 0.00 0.00 0.00 41 1012.8
20260906201709 95 49 0.0 0.0 0.00 0.00 0.00 39 1012.9
20260906201156 95 49 0.0 2.0 0.00 0.00 0.00 41 1013.0
20260906200643 95 73 0.0 0.0 0.00 0.00 0.00 40 1013.0
20260906200130 95 73 0.0 0.0 0.00 0.00 0.00 40 1013.1
20260906195617 95 73 0.0 0.0 0.00 0.00 0.00 40 1013.3
20260906195104 95 73 0.0 0.0 0.00 0.00 0.00 41 1013.3
20260906194551 95 73 0.0 0.0 0.00 0.00 0.00 41 1013.2
20260906194038 94 73 0.0 0.0 0.00 0.00 0.00 41 1013.3
20260906193525 94 73 0.0 0.0 0.00 0.00 0.00 40 1013.4
20260906193012 94 73 0.0 4.0 0.00 0.00 0.00 40 1013.3
20260906192459 94 69 0.0 3.0 0.00 0.00 0.00 40 1013.4
20260906191946 95 69 0.0 0.0 0.00 0.00 0.00 40 1013.4
20260906191433 95 69 0.0 0.0 0.00 0.00 0.00 40 1013.6
20260906190920 96 69 0.0 0.0 0.00 0.00 0.00 41 1013.6
20260906190407 96 69 0.0 5.0 0.00 0.00 0.00 38 1013.7
20260906185854 97 73 0.0 0.0 0.00 0.00 0.00 39 1013.8
20260906185341 97 73 0.0 1.0 0.00 0.00 0.00 38 1013.8
20260906184828 96 73 0.0 0.0 0.00 0.00 0.00 40 1014.0
20260906184315 96 73 0.0 0.0 0.00 0.00 0.00 36 1014.1
20260906183802 96 73 0.0 0.0 0.00 0.00 0.00 39 1014.2
20260906183249 96 73 0.0 0.0 0.00 0.00 0.00 40 1014.3
20260906182736 96 73 0.0 0.0 0.00 0.00 0.00 40 1014.3
20260906182223 96 73 0.0 0.0 0.00 0.00 0.00 40 1014.4
20260906181710 95 73 0.0 0.0 0.00 0.00 0.00 40 1014.5
20260906181157 94 73 0.0 0.0 0.00 0.00 0.00 40 1014.5
20260906180644 94 73 0.0 0.0 0.00 0.00 0.00 42 1014.7
20260906180131 94 73 0.0 0.0 0.00 0.00 0.00 44 1014.6
20260906175618 94 73 0.0 0.0 0.00 0.00 0.00 43 1014.7
20260906175105 94 73 0.0 5.0 0.00 0.00 0.00 44 1014.8
20260906174552 94 176 0.0 0.0 0.00 0.00 0.00 44 1014.8
20260906174039 95 176 0.0 0.0 0.00 0.00 0.00 44 1014.9
20260906173526 95 176 0.0 0.0 0.00 0.00 0.00 42 1015.0
20260906173013 94 176 0.0 0.0 0.00 0.00 0.00 43 1015.1
20260906172500 94 176 0.0 0.0 0.00 0.00 0.00 46 1015.2
20260906171947 94 176 0.0 0.0 0.00 0.00 0.00 46 1015.3
20260906171434 93 176 0.0 0.0 0.00 0.00 0.00 46 1015.3
20260906170921 93 176 0.0 0.0 0.00 0.00 0.00 46 1015.4
20260906170408 93 176 0.0 2.0 0.00 0.00 0.00 45 1015.4
20260906165855 94 176 0.0 0.0 0.00 0.00 0.00 46 1015.5
20260906165342 94 176 0.0 4.0 0.00 0.00 0.00 46 1015.6
20260906164829 94 55 0.0 0.0 0.00 0.00 0.00 46 1015.6
20260906164316 93 55 0.0 0.0 0.00 0.00 0.00 48 1015.7
20260906163803 92 55 0.0 0.0 0.00 0.00 0.00 49 1015.7
20260906163250 91 55 0.0 0.0 0.00 0.00 0.00 50 1015.7
20260906162737 91 55 0.0 0.0 0.00 0.00 0.00 52 1015.7
20260906162224 90 55 0.0 0.0 0.00 0.00 0.00 51 1015.7
20260906161711 90 55 0.0 0.0 0.00 0.00 0.00 51 1015.7
20260906161158 90 55 0.0 3.0 0.00 0.00 0.00 51 1015.7
20260906160645 89 79 0.0 6.0 0.00 0.00 0.00 52 1015.7
20260906160132 89 66 0.0 0.0 0.00 0.00 0.00 53 1015.7
20260906155619 89 66 0.0 0.0 0.00 0.00 0.00 52 1015.6
20260906155106 89 66 0.0 0.0 0.00 0.00 0.00 55 1015.6
20260906154553 89 66 0.0 0.0 0.00 0.00 0.00 53 1015.6
20260906154040 88 66 0.0 0.0 0.00 0.00 0.00 54 1015.5
20260906153926 88 66 0.0 3.0 0.00 0.00 0.00 56 1015.5
20260906153527 88 66 0.0 3.0 0.00 0.00 0.00 56 1015.5
20260906153014 88 30 0.0 0.0 0.00 0.00 0.00 56 1015.5
20260906152501 88 30 0.0 0.0 0.00 0.00 0.00 56 1015.5
20260906151948 87 30 0.0 0.0 0.00 0.00 0.00 58 1015.4
20260906151435 87 30 0.0 0.0 0.00 0.00 0.00 60 1015.5
20260906150922 86 30 0.0 2.0 0.00 0.00 0.00 61 1015.4
20260906150409 86 41 0.0 0.0 0.00 0.00 0.00 61 1015.5
20260906145856 85 41 0.0 0.0 0.00 0.00 0.00 62 1015.5
20260906145343 85 41 0.0 4.0 0.00 0.00 0.00 62 1015.6
20260906144830 85 65 0.0 8.0 0.00 0.00 0.00 62 1015.6
20260906144317 85 65 0.0 4.0 0.00 0.00 0.00 63 1015.6
20260906143804 84 93 0.0 5.0 0.00 0.00 0.00 64 1015.6
20260906143251 84 89 0.0 3.0 0.00 0.00 0.00 64 1015.5
20260906142738 83 48 1.0 8.0 0.00 0.00 0.00 63 1015.6
20260906142225 83 72 0.0 3.0 0.00 0.00 0.00 65 1015.5
20260906141712 83 56 2.0 5.0 0.00 0.00 0.00 65 1015.5
20260906141159 83 65 2.0 6.0 0.00 0.00 0.00 65 1015.5
20260906140646 82 73 0.0 7.0 0.00 0.00 0.00 66 1015.5
20260906140133 82 86 0.0 5.0 0.00 0.00 0.00 66 1015.4
20260906135620 82 60 0.0 4.0 0.00 0.00 0.00 66 1015.4
20260906135107 82 86 0.0 0.0 0.00 0.00 0.00 67 1015.5
20260906134554 82 86 0.0 0.0 0.00 0.00 0.00 66 1015.4
20260906134041 81 86 0.0 0.0 0.00 0.00 0.00 68 1015.4
20260906133528 81 86 0.0 0.0 0.00 0.00 0.00 69 1015.4
20260906133015 80 86 0.0 0.0 0.00 0.00 0.00 69 1015.3
20260906132502 80 86 0.0 0.0 0.00 0.00 0.00 70 1015.2
20260906131949 79 86 0.0 0.0 0.00 0.00 0.00 70 1015.1
20260906131436 79 86 0.0 0.0 0.00 0.00 0.00 71 1015.1
20260906130923 79 86 0.0 0.0 0.00 0.00 0.00 71 1015.0
20260906130410 79 86 0.0 0.0 0.00 0.00 0.00 71 1015.0
20260906125857 79 86 0.0 0.0 0.00 0.00 0.00 72 1015.0
20260906125344 79 86 0.0 0.0 0.00 0.00 0.00 72 1015.1
20260906124831 79 86 0.0 0.0 0.00 0.00 0.00 72 1015.0
20260906124318 79 86 0.0 0.0 0.00 0.00 0.00 72 1014.9
20260906123805 79 86 0.0 0.0 0.00 0.00 0.00 70 1014.8
20260906123252 79 86 0.0 0.0 0.00 0.00 0.00 70 1014.7
20260906122739 79 86 0.0 0.0 0.00 0.00 0.00 69 1014.6
20260906122226 79 86 0.0 0.0 0.00 0.00 0.00 70 1014.6
20260906121713 78 86 0.0 0.0 0.00 0.00 0.00 71 1014.4
20260906121200 78 86 0.0 0.0 0.00 0.00 0.00 71 1014.4
20260906120647 78 86 0.0 0.0 0.00 0.00 0.00 71 1014.6
20260906120134 78 86 0.0 0.0 0.00 0.00 0.00 72 1014.5
20260906115621 78 86 0.0 0.0 0.00 0.00 0.00 72 1014.5
20260906115108 78 86 0.0 0.0 0.00 0.00 0.00 72 1014.5
20260906114555 78 86 0.0 0.0 0.00 0.00 0.00 72 1014.4
20260906114042 78 86 0.0 0.0 0.00 0.00 0.00 72 1014.4
20260906113529 79 86 0.0 0.0 0.00 0.00 0.00 71 1014.4
20260906113016 79 86 0.0 0.0 0.00 0.00 0.00 71 1014.3
20260906112503 79 86 0.0 0.0 0.00 0.00 0.00 71 1014.3
20260906111950 79 86 0.0 0.0 0.00 0.00 0.00 71 1014.1
20260906111437 78 86 0.0 0.0 0.00 0.00 0.00 71 1014.1
20260906110924 79 86 0.0 0.0 0.00 0.00 0.00 72 1014.2
20260906110411 79 86 0.0 0.0 0.00 0.00 0.00 71 1014.3
20260906105858 79 86 0.0 0.0 0.00 0.00 0.00 71 1014.2
20260906105345 79 86 0.0 0.0 0.00 0.00 0.00 71 1014.2
20260906104832 79 86 0.0 0.0 0.00 0.00 0.00 70 1014.2
20260906104319 79 86 0.0 0.0 0.00 0.00 0.00 70 1014.2
20260906103806 79 86 0.0 0.0 0.00 0.00 0.00 69 1014.1
20260906103253 80 86 0.0 0.0 0.00 0.00 0.00 68 1014.0
20260906102740 80 86 0.0 0.0 0.00 0.00 0.00 68 1014.0
20260906102227 80 86 0.0 0.0 0.00 0.00 0.00 67 1014.1
20260906101714 80 86 0.0 0.0 0.00 0.00 0.00 67 1014.1
20260906101201 80 86 0.0 0.0 0.00 0.00 0.00 68 1014.1
20260906100648 80 86 0.0 0.0 0.00 0.00 0.00 67 1014.0
20260906100135 80 86 0.0 0.0 0.00 0.00 0.00 66 1014.0
20260906095622 80 86 0.0 0.0 0.00 0.00 0.00 67 1014.0
20260906095109 80 86 0.0 0.0 0.00 0.00 0.00 67 1014.0
20260906094556 80 86 0.0 0.0 0.00 0.00 0.00 67 1013.9
20260906094043 80 86 0.0 0.0 0.00 0.00 0.00 67 1013.9
20260906093530 80 86 0.0 0.0 0.00 0.00 0.00 67 1013.9
20260906093017 80 86 0.0 0.0 0.00 0.00 0.00 67 1013.9
20260906092504 80 86 0.0 0.0 0.00 0.00 0.00 67 1013.8
20260906091951 80 86 0.0 0.0 0.00 0.00 0.00 67 1013.8
20260906091438 80 86 0.0 0.0 0.00 0.00 0.00 67 1013.8
20260906090925 80 86 0.0 0.0 0.00 0.00 0.00 67 1013.8
20260906090412 80 86 0.0 0.0 0.00 0.00 0.00 66 1013.7
20260906085859 80 86 0.0 0.0 0.00 0.00 0.00 66 1013.7
20260906085346 80 86 0.0 0.0 0.00 0.00 0.00 67 1013.7
20260906084833 80 86 0.0 0.0 0.00 0.00 0.00 67 1013.6
20260906084320 80 86 0.0 0.0 0.00 0.00 0.00 67 1013.6
20260906084144 80 86 0.0 0.0 0.00 0.00 0.00 67 1013.6
20260906083807 80 86 0.0 0.0 0.00 0.00 0.00 67 1013.6
20260906083536 80 86 0.0 0.0 0.00 0.00 0.00 66 1013.4
20260906083254 80 86 0.0 0.0 0.00 0.00 0.00 66 1013.4
20260906082741 81 86 0.0 0.0 0.00 0.00 0.00 65 1013.4
20260906082228 81 86 0.0 0.0 0.00 0.00 0.00 65 1013.4
20260906081715 81 86 0.0 0.0 0.00 0.00 0.00 65 1013.4
20260906081202 81 86 0.0 0.0 0.00 0.00 0.00 65 1013.6
20260906080649 81 86 0.0 0.0 0.00 0.00 0.00 65 1013.6
20260906080136 80 86 0.0 0.0 0.00 0.00 0.00 65 1013.4
20260906075623 81 86 0.0 0.0 0.00 0.00 0.00 65 1013.4
20260906075110 81 86 0.0 0.0 0.00 0.00 0.00 65 1013.4
20260906074557 81 86 0.0 0.0 0.00 0.00 0.00 65 1013.4
20260906074044 81 86 0.0 0.0 0.00 0.00 0.00 64 1013.4
20260906073531 81 86 0.0 0.0 0.00 0.00 0.00 63 1013.4
20260906073018 82 86 0.0 0.0 0.00 0.00 0.00 62 1013.3
20260906072505 82 86 0.0 0.0 0.00 0.00 0.00 61 1013.4
20260906071952 82 86 0.0 0.0 0.00 0.00 0.00 60 1013.4
20260906071439 83 86 0.0 0.0 0.00 0.00 0.00 59 1013.4
20260906070926 83 86 0.0 0.0 0.00 0.00 0.00 59 1013.6
20260906070413 83 86 0.0 0.0 0.00 0.00 0.00 59 1013.6
20260906070249 83 86 0.0 0.0 0.00 0.00 0.00 60 1013.6
20260906065900 83 86 0.0 0.0 0.00 0.00 0.00 60 1013.6
20260906065347 82 86 0.0 0.0 0.00 0.00 0.00 62 1013.6
20260906065034 82 86 0.0 0.0 0.00 0.00 0.00 62 1013.6
20260906064834 82 86 0.0 0.0 0.00 0.00 0.00 62 1013.6
20260906064321 82 86 0.0 0.0 0.00 0.00 0.00 62 1013.7
20260906063808 82 86 0.0 0.0 0.00 0.00 0.00 62 1013.8
20260906063255 82 86 0.0 0.0 0.00 0.00 0.00 62 1013.7
20260906063026 82 86 0.0 0.0 0.00 0.00 0.00 62 1013.8
20260906062742 82 86 0.0 0.0 0.00 0.00 0.00 62 1013.8
20260906062229 82 86 0.0 0.0 0.00 0.00 0.00 62 1013.8
20260906061716 82 86 0.0 0.0 0.00 0.00 0.00 61 1013.9
20260906061203 83 86 0.0 0.0 0.00 0.00 0.00 61 1013.9
20260906060650 83 86 0.0 0.0 0.00 0.00 0.00 61 1013.8
20260906060137 83 86 0.0 0.0 0.00 0.00 0.00 61 1013.9
20260906055624 83 86 0.0 0.0 0.00 0.00 0.00 61 1013.9
20260906055111 83 86 0.0 0.0 0.00 0.00 0.00 60 1013.9
20260906054558 83 86 0.0 0.0 0.00 0.00 0.00 60 1013.9
20260906054045 83 86 0.0 0.0 0.00 0.00 0.00 60 1014.0
20260906053532 83 86 0.0 0.0 0.00 0.00 0.00 60 1014.0
20260906053019 83 86 0.0 0.0 0.00 0.00 0.00 59 1014.0
20260906052506 84 86 0.0 0.0 0.00 0.00 0.00 59 1014.0
20260906051953 84 86 0.0 0.0 0.00 0.00 0.00 58 1014.1
20260906051440 84 86 0.0 0.0 0.00 0.00 0.00 58 1014.0
20260906050927 84 86 0.0 0.0 0.00 0.00 0.00 58 1014.0
20260906050414 84 86 0.0 0.0 0.00 0.00 0.00 59 1014.0
20260906045901 85 86 0.0 0.0 0.00 0.00 0.00 58 1013.9
20260906045348 85 86 0.0 0.0 0.00 0.00 0.00 57 1013.9
20260906044835 85 86 0.0 0.0 0.00 0.00 0.00 58 1013.9
20260906044322 84 86 0.0 0.0 0.00 0.00 0.00 58 1014.0
20260906043809 85 86 0.0 0.0 0.00 0.00 0.00 58 1014.0
20260906043256 85 86 0.0 0.0 0.00 0.00 0.00 58 1014.0
20260906042743 85 86 0.0 0.0 0.00 0.00 0.00 58 1014.0
20260906042230 85 86 0.0 0.0 0.00 0.00 0.00 58 1013.9
20260906041717 85 86 0.0 0.0 0.00 0.00 0.00 57 1013.8
20260906041204 85 86 0.0 0.0 0.00 0.00 0.00 57 1013.8
20260906040651 86 86 0.0 0.0 0.00 0.00 0.00 57 1013.7
20260906040138 86 86 0.0 0.0 0.00 0.00 0.00 57 1013.8
20260906035625 86 86 0.0 0.0 0.00 0.00 0.00 57 1013.7
20260906035112 86 86 0.0 0.0 0.00 0.00 0.00 57 1013.7
20260906034559 86 86 0.0 0.0 0.00 0.00 0.00 57 1013.7
20260906034046 86 86 0.0 0.0 0.00 0.00 0.00 56 1013.6
20260906033533 86 86 0.0 0.0 0.00 0.00 0.00 56 1013.6
20260906033020 86 86 0.0 0.0 0.00 0.00 0.00 56 1013.4
20260906032507 86 86 0.0 0.0 0.00 0.00 0.00 56 1013.3
20260906031954 86 86 0.0 0.0 0.00 0.00 0.00 56 1013.3
20260906031441 86 86 0.0 0.0 0.00 0.00 0.00 57 1013.3
20260906030928 86 86 0.0 0.0 0.00 0.00 0.00 57 1013.3
20260906030415 86 86 0.0 0.0 0.00 0.00 0.00 55 1013.3
20260906025902 86 86 0.0 0.0 0.00 0.00 0.00 55 1013.2
20260906025349 87 86 0.0 0.0 0.00 0.00 0.00 55 1013.1
20260906024836 87 86 0.0 0.0 0.00 0.00 0.00 54 1013.1
20260906024323 87 86 0.0 0.0 0.00 0.00 0.00 54 1013.0
20260906023810 87 86 0.0 0.0 0.00 0.00 0.00 54 1013.0
20260906023257 87 86 0.0 0.0 0.00 0.00 0.00 54 1013.0
20260906022744 87 86 0.0 0.0 0.00 0.00 0.00 54 1012.8
20260906022231 87 86 0.0 0.0 0.00 0.00 0.00 53 1012.8
20260906021718 87 86 0.0 0.0 0.00 0.00 0.00 53 1012.7
20260906021205 88 86 0.0 0.0 0.00 0.00 0.00 53 1012.6
20260906020652 88 86 0.0 0.0 0.00 0.00 0.00 52 1012.6
20260906020139 88 86 0.0 0.0 0.00 0.00 0.00 52 1012.5
20260906015626 88 86 0.0 0.0 0.00 0.00 0.00 52 1012.5
20260906015113 88 86 0.0 0.0 0.00 0.00 0.00 52 1012.4
20260906014600 89 86 0.0 0.0 0.00 0.00 0.00 52 1012.4
20260906014047 89 86 0.0 0.0 0.00 0.00 0.00 51 1012.3
20260906013534 89 86 0.0 0.0 0.00 0.00 0.00 50 1012.2
20260906013021 89 86 0.0 0.0 0.00 0.00 0.00 51 1012.2
20260906012508 89 86 0.0 0.0 0.00 0.00 0.00 51 1012.2
20260906011955 89 86 0.0 0.0 0.00 0.00 0.00 51 1012.1
20260906011442 89 86 0.0 0.0 0.00 0.00 0.00 51 1012.1
20260906010929 89 86 0.0 0.0 0.00 0.00 0.00 50 1012.1
20260906010416 90 86 0.0 0.0 0.00 0.00 0.00 50 1012.1
20260906005903 90 86 0.0 0.0 0.00 0.00 0.00 49 1012.1
20260906005350 90 86 0.0 0.0 0.00 0.00 0.00 49 1012.1
20260906004837 90 86 0.0 0.0 0.00 0.00 0.00 48 1012.2
20260906004324 90 86 0.0 0.0 0.00 0.00 0.00 48 1012.1
20260906003811 90 86 0.0 0.0 0.00 0.00 0.00 48 1012.1
20260906003258 90 86 0.0 0.0 0.00 0.00 0.00 48 1012.0
20260906002745 91 86 0.0 0.0 0.00 0.00 0.00 48 1012.0
20260906002232 91 86 0.0 0.0 0.00 0.00 0.00 47 1012.1
20260906001719 91 86 0.0 0.0 0.00 0.00 0.00 46 1012.1
20260906001206 92 86 0.0 0.0 0.00 0.00 0.00 46 1012.1
20260906000653 92 86 0.0 0.0 0.00 0.00 0.00 45 1012.0
20260906000140 92 86 0.0 0.0 0.00 0.00 0.00 45 1012.0
20260905235627 92 86 0.0 0.0 0.00 0.00 0.00 44 1012.1
20260905235114 93 86 0.0 0.0 0.00 0.00 0.00 44 1012.1
20260905234601 93 86 0.0 0.0 0.00 0.00 0.00 43 1012.0